Time,TemperatureF,DewpointF,PressureIn,WindDirection,WindDirectionDegrees,WindSpeedMPH,WindSpeedGustMPH,Humidity,HourlyPrecipIn,Conditions,Clouds,dailyrainin,SoftwareType,DateUTC
2013-03-10 00:00:00,51.8,29.8,0.00,WNW,293,0.0,1.1,43,0.00,,,0.00,WUHU216HW,2013-03-10 05:00:00,
2013-03-10 00:05:00,51.8,29.8,0.00,WNW,293,0.0,0.0,43,0.00,,,0.00,WUHU216HW,2013-03-10 05:05:00,
2013-03-10 00:11:00,51.8,29.8,0.00,WNW,293,0.0,0.0,43,0.00,,,0.00,WUHU216HW,2013-03-10 05:11:00,
2013-03-10 00:16:00,51.6,29.7,0.00,NW,315,0.0,2.9,43,0.00,,,0.00,WUHU216HW,2013-03-10 05:16:00,
2013-03-10 00:21:00,51.4,29.5,0.00,NW,315,0.8,2.9,43,0.00,,,0.00,WUHU216HW,2013-03-10 05:21:00,
2013-03-10 00:26:00,51.4,29.5,0.00,NW,315,0.0,1.3,43,0.00,,,0.00,WUHU216HW,2013-03-10 05:26:00,
2013-03-10 00:31:00,51.4,29.5,0.00,NW,315,0.0,1.7,43,0.00,,,0.00,WUHU216HW,2013-03-10 05:31:00,
2013-03-10 00:36:00,51.0,29.4,0.00,NW,315,0.0,1.7,43,0.00,,,0.00,WUHU216HW,2013-03-10 05:36:00,
2013-03-10 00:41:00,51.0,29.2,0.00,NNW,338,0.0,2.2,43,0.00,,,0.00,WUHU216HW,2013-03-10 05:41:00,
2013-03-10 00:46:00,51.0,29.2,0.00,NW,315,0.0,2.2,43,0.00,,,0.00,WUHU216HW,2013-03-10 05:46:00,
2013-03-10 00:51:00,51.0,29.2,0.00,NW,315,4.0,4.0,43,0.00,,,0.00,WUHU216HW,2013-03-10 05:51:00,
2013-03-10 00:56:00,51.0,29.4,0.00,NW,315,0.0,4.0,43,0.00,,,0.00,WUHU216HW,2013-03-10 05:56:00,
2013-03-10 01:01:00,51.2,29.4,0.00,NW,315,0.0,3.3,43,0.00,,,0.00,WUHU216HW,2013-03-10 06:01:00,
2013-03-10 01:15:00,50.7,28.9,0.00,NW,315,0.0,0.0,43,0.00,,,0.00,WUHU216HW,2013-03-10 06:15:00,
2013-03-10 01:20:00,50.5,29.3,0.00,NW,315,0.0,2.2,44,0.00,,,0.00,WUHU216HW,2013-03-10 06:20:00,
2013-03-10 01:25:00,50.5,29.3,0.00,NW,315,0.0,2.2,44,0.00,,,0.00,WUHU216HW,2013-03-10 06:25:00,
2013-03-10 01:30:00,50.3,29.1,0.00,NNW,338,0.0,2.2,44,0.00,,,0.00,WUHU216HW,2013-03-10 06:30:00,
2013-03-10 01:35:00,50.1,28.9,0.00,NW,315,3.1,5.5,44,0.00,,,0.00,WUHU216HW,2013-03-10 06:35:00,
2013-03-10 01:40:00,50.1,28.9,0.00,NW,315,0.0,5.5,44,0.00,,,0.00,WUHU216HW,2013-03-10 06:40:00,
2013-03-10 01:45:00,50.1,28.9,0.00,NW,315,0.0,2.0,44,0.00,,,0.00,WUHU216HW,2013-03-10 06:45:00,
2013-03-10 01:50:00,49.8,28.6,0.00,NW,315,0.0,0.0,44,0.00,,,0.00,WUHU216HW,2013-03-10 06:50:00,
2013-03-10 01:55:00,49.6,29.0,0.00,NW,315,0.0,1.1,45,0.00,,,0.00,WUHU216HW,2013-03-10 06:55:00,
2013-03-10 03:00:00,49.6,29.0,0.00,NW,315,0.0,1.1,45,0.00,,,0.00,WUHU216HW,2013-03-10 07:00:00,
2013-03-10 03:05:00,49.2,28.7,0.00,NW,315,0.0,0.6,45,0.00,,,0.00,WUHU216HW,2013-03-10 07:05:00,
2013-03-10 03:10:00,48.9,28.3,0.00,NW,315,0.0,0.6,45,0.00,,,0.00,WUHU216HW,2013-03-10 07:10:00,
2013-03-10 03:15:00,48.7,28.7,0.00,WNW,293,0.0,2.9,46,0.00,,,0.00,WUHU216HW,2013-03-10 07:15:00,
2013-03-10 03:20:00,48.5,28.5,0.00,WNW,293,0.0,2.9,46,0.00,,,0.00,WUHU216HW,2013-03-10 07:20:00,
2013-03-10 03:25:00,48.5,28.5,0.00,NW,315,0.0,2.9,46,0.00,,,0.00,WUHU216HW,2013-03-10 07:25:00,
2013-03-10 03:30:00,48.5,28.5,0.00,NW,315,0.0,2.9,46,0.00,,,0.00,WUHU216HW,2013-03-10 07:30:00,
2013-03-10 03:35:00,48.2,28.2,0.00,NW,315,0.0,2.9,46,0.00,,,0.00,WUHU216HW,2013-03-10 07:35:00,
2013-03-10 03:40:00,48.0,28.5,0.00,NW,315,0.0,0.0,47,0.00,,,0.00,WUHU216HW,2013-03-10 07:40:00,
2013-03-10 03:45:00,48.0,28.5,0.00,NW,315,0.0,0.0,47,0.00,,,0.00,WUHU216HW,2013-03-10 07:45:00,
2013-03-10 03:50:00,48.0,28.5,0.00,NW,315,0.0,0.0,47,0.00,,,0.00,WUHU216HW,2013-03-10 07:50:00,
2013-03-10 03:55:00,48.0,28.5,0.00,NW,315,1.3,1.3,47,0.00,,,0.00,WUHU216HW,2013-03-10 07:55:00,
2013-03-10 04:00:00,48.3,28.9,0.00,NW,315,0.0,1.3,47,0.00,,,0.00,WUHU216HW,2013-03-10 08:00:00,
2013-03-10 04:05:00,48.7,29.2,0.00,NW,315,0.0,3.1,47,0.00,,,0.00,WUHU216HW,2013-03-10 08:05:00,
2013-03-10 04:10:00,48.9,29.4,0.00,NNW,338,5.8,5.8,47,0.00,,,0.00,WUHU216HW,2013-03-10 08:10:00,
2013-03-10 04:15:00,48.9,29.4,0.00,WSW,248,0.0,5.8,47,0.00,,,0.00,WUHU216HW,2013-03-10 08:15:00,
2013-03-10 04:20:00,49.1,29.4,0.00,WSW,248,0.0,1.7,47,0.00,,,0.00,WUHU216HW,2013-03-10 08:20:00,
2013-03-10 04:25:00,48.9,29.4,0.00,WNW,293,0.0,2.2,47,0.00,,,0.00,WUHU216HW,2013-03-10 08:25:00,
2013-03-10 04:30:00,48.9,29.4,0.00,WNW,293,0.0,2.2,47,0.00,,,0.00,WUHU216HW,2013-03-10 08:30:00,
2013-03-10 04:35:00,48.9,29.4,0.00,West,270,0.0,2.6,47,0.00,,,0.00,WUHU216HW,2013-03-10 08:35:00,
2013-03-10 04:40:00,48.9,29.4,0.00,WNW,293,1.1,3.5,47,0.00,,,0.00,WUHU216HW,2013-03-10 08:40:00,
2013-03-10 04:45:00,49.1,29.6,0.00,NNW,338,0.0,4.2,47,0.00,,,0.00,WUHU216HW,2013-03-10 08:45:00,
2013-03-10 04:50:00,49.1,29.6,0.00,NNW,338,0.0,4.2,47,0.00,,,0.00,WUHU216HW,2013-03-10 08:50:00,
2013-03-10 04:55:00,49.1,29.6,0.00,NNW,338,2.4,2.4,47,0.00,,,0.00,WUHU216HW,2013-03-10 08:55:00,
2013-03-10 05:00:00,49.1,29.6,0.00,NNW,338,2.6,2.6,47,0.00,,,0.00,WUHU216HW,2013-03-10 09:00:00,
2013-03-10 05:05:00,49.2,29.8,0.00,NW,315,0.0,2.9,47,0.00,,,0.00,WUHU216HW,2013-03-10 09:05:00,
2013-03-10 05:10:00,49.4,29.9,0.00,NW,315,0.0,4.6,47,0.00,,,0.00,WUHU216HW,2013-03-10 09:10:00,
2013-03-10 05:15:00,49.2,29.8,0.00,NNW,338,0.0,4.6,47,0.00,,,0.00,WUHU216HW,2013-03-10 09:15:00,
2013-03-10 05:20:00,49.1,29.6,0.00,WNW,293,0.0,4.0,47,0.00,,,0.00,WUHU216HW,2013-03-10 09:20:00,
2013-03-10 05:25:00,48.7,29.2,0.00,WNW,293,0.0,2.4,47,0.00,,,0.00,WUHU216HW,2013-03-10 09:25:00,
2013-03-10 05:30:00,48.0,28.5,0.00,WNW,293,0.0,0.0,47,0.00,,,0.00,WUHU216HW,2013-03-10 09:30:00,
2013-03-10 05:35:00,47.4,28.6,0.00,WNW,293,0.0,0.0,48,0.00,,,0.00,WUHU216HW,2013-03-10 09:35:00,
2013-03-10 05:40:00,46.9,28.3,0.00,WNW,293,0.0,0.0,48,0.00,,,0.00,WUHU216HW,2013-03-10 09:40:00,
2013-03-10 05:45:00,46.5,28.3,0.00,WNW,293,0.0,0.0,49,0.00,,,0.00,WUHU216HW,2013-03-10 09:45:00,
2013-03-10 05:50:00,46.2,28.0,0.00,WNW,293,0.0,2.0,49,0.00,,,0.00,WUHU216HW,2013-03-10 09:50:00,
2013-03-10 05:55:00,46.0,28.4,0.00,WNW,293,0.0,2.4,50,0.00,,,0.00,WUHU216HW,2013-03-10 09:55:00,
2013-03-10 06:00:00,46.0,28.4,0.00,NW,315,0.0,2.4,50,0.00,,,0.00,WUHU216HW,2013-03-10 10:00:00,
2013-03-10 06:05:00,46.0,28.4,0.00,NNW,338,0.0,3.5,50,0.00,,,0.00,WUHU216HW,2013-03-10 10:05:00,
2013-03-10 06:10:00,46.0,28.4,0.00,NNW,338,0.0,3.5,50,0.00,,,0.00,WUHU216HW,2013-03-10 10:10:00,
2013-03-10 06:15:00,46.0,28.8,0.00,NNW,338,1.1,3.1,51,0.00,,,0.00,WUHU216HW,2013-03-10 10:15:00,
2013-03-10 06:20:00,46.0,28.8,0.00,NNW,338,0.0,3.5,51,0.00,,,0.00,WUHU216HW,2013-03-10 10:20:00,
2013-03-10 06:25:00,46.4,29.2,0.00,NNW,338,0.0,3.5,51,0.00,,,0.00,WUHU216HW,2013-03-10 10:25:00,
2013-03-10 06:30:00,46.9,29.2,0.00,NNW,338,4.4,4.4,50,0.00,,,0.00,WUHU216HW,2013-03-10 10:30:00,
2013-03-10 06:35:00,47.1,29.4,0.00,NW,315,2.6,5.5,50,0.00,,,0.00,WUHU216HW,2013-03-10 10:35:00,
2013-03-10 06:40:00,47.4,29.7,0.00,NW,315,0.0,5.5,50,0.00,,,0.00,WUHU216HW,2013-03-10 10:40:00,
2013-03-10 06:45:00,47.8,29.5,0.00,NNW,338,2.4,4.4,49,0.00,,,0.00,WUHU216HW,2013-03-10 10:45:00,
2013-03-10 06:50:00,47.8,29.5,0.00,NNW,338,0.0,4.4,49,0.00,,,0.00,WUHU216HW,2013-03-10 10:50:00,
2013-03-10 06:55:00,47.6,29.3,0.00,NNW,338,0.0,3.8,49,0.00,,,0.00,WUHU216HW,2013-03-10 10:55:00,
2013-03-10 07:00:00,47.4,29.7,0.00,NNW,338,0.0,2.2,50,0.00,,,0.00,WUHU216HW,2013-03-10 11:00:00,
2013-03-10 07:05:00,47.1,29.4,0.00,NNW,338,0.0,2.2,50,0.00,,,0.00,WUHU216HW,2013-03-10 11:05:00,
2013-03-10 07:10:00,46.9,29.6,0.00,NNW,338,0.0,0.0,51,0.00,,,0.00,WUHU216HW,2013-03-10 11:10:00,
2013-03-10 07:15:00,46.5,29.3,0.00,NNW,338,0.0,0.0,51,0.00,,,0.00,WUHU216HW,2013-03-10 11:15:00,
2013-03-10 07:20:00,46.2,29.0,0.00,NNW,338,0.0,2.9,51,0.00,,,0.00,WUHU216HW,2013-03-10 11:20:00,
2013-03-10 07:25:00,46.0,29.3,0.00,NNW,338,0.0,2.9,52,0.00,,,0.00,WUHU216HW,2013-03-10 11:25:00,
2013-03-10 07:30:00,45.6,29.0,0.00,NNW,338,0.0,2.2,52,0.00,,,0.00,WUHU216HW,2013-03-10 11:30:00,
2013-03-10 07:35:00,45.5,29.3,0.00,NNW,338,0.0,0.0,53,0.00,,,0.00,WUHU216HW,2013-03-10 11:35:00,
2013-03-10 07:40:00,45.3,29.1,0.00,NNW,338,0.0,0.0,53,0.00,,,0.00,WUHU216HW,2013-03-10 11:40:00,
2013-03-10 07:45:00,45.1,28.9,0.00,NNW,338,0.0,0.0,53,0.00,,,0.00,WUHU216HW,2013-03-10 11:45:00,
2013-03-10 07:50:00,45.1,28.9,0.00,NNW,338,0.0,1.7,53,0.00,,,0.00,WUHU216HW,2013-03-10 11:50:00,
2013-03-10 07:55:00,45.1,28.9,0.00,NW,315,3.1,3.5,53,0.00,,,0.00,WUHU216HW,2013-03-10 11:55:00,
2013-03-10 08:00:00,45.3,29.1,0.00,NW,315,2.4,3.5,53,0.00,,,0.00,WUHU216HW,2013-03-10 12:00:00,
2013-03-10 08:05:00,45.6,29.4,0.00,NW,315,0.0,2.4,53,0.00,,,0.00,WUHU216HW,2013-03-10 12:05:00,
2013-03-10 08:10:00,46.0,29.7,0.00,NW,315,0.0,2.6,53,0.00,,,0.00,WUHU216HW,2013-03-10 12:10:00,
2013-03-10 08:15:00,46.0,29.3,0.00,NW,315,2.2,2.6,52,0.00,,,0.00,WUHU216HW,2013-03-10 12:15:00,
2013-03-10 08:20:00,46.2,29.4,0.00,NW,315,3.1,3.1,52,0.00,,,0.00,WUHU216HW,2013-03-10 12:20:00,
2013-03-10 08:25:00,46.5,29.8,0.00,NNW,338,0.0,6.7,52,0.00,,,0.00,WUHU216HW,2013-03-10 12:25:00,
2013-03-10 08:30:00,46.9,29.6,0.00,NW,315,0.0,6.7,51,0.00,,,0.00,WUHU216HW,2013-03-10 12:30:00,
2013-03-10 08:35:00,47.3,30.0,0.00,NW,315,0.0,5.5,51,0.00,,,0.00,WUHU216HW,2013-03-10 12:35:00,
2013-03-10 08:40:00,47.8,30.5,0.00,WNW,293,0.8,2.9,51,0.00,,,0.00,WUHU216HW,2013-03-10 12:40:00,
2013-03-10 08:45:00,48.0,30.2,0.00,WNW,293,0.0,3.8,50,0.00,,,0.00,WUHU216HW,2013-03-10 12:45:00,
2013-03-10 08:50:00,48.5,30.7,0.00,WNW,293,0.0,5.8,50,0.00,,,0.00,WUHU216HW,2013-03-10 12:50:00,
2013-03-10 08:55:00,48.7,30.3,0.00,NW,315,1.1,6.4,49,0.00,,,0.00,WUHU216HW,2013-03-10 12:55:00,
2013-03-10 09:00:00,49.1,30.7,0.00,NW,315,0.0,6.4,49,0.00,,,0.00,WUHU216HW,2013-03-10 13:00:00,
2013-03-10 09:05:00,49.2,30.9,0.00,WNW,293,2.2,7.3,49,0.00,,,0.00,WUHU216HW,2013-03-10 13:05:00,
2013-03-10 09:10:00,49.4,31.0,0.00,NW,315,5.1,7.3,49,0.00,,,0.00,WUHU216HW,2013-03-10 13:10:00,
2013-03-10 09:15:00,49.8,31.2,0.00,NW,315,0.0,5.1,49,0.00,,,0.00,WUHU216HW,2013-03-10 13:15:00,
2013-03-10 09:20:00,49.8,31.4,0.00,NW,315,3.3,3.8,49,0.00,,,0.00,WUHU216HW,2013-03-10 13:20:00,
2013-03-10 09:25:00,49.8,30.8,0.00,NNW,338,0.0,6.4,48,0.00,,,0.00,WUHU216HW,2013-03-10 13:25:00,
2013-03-10 09:30:00,50.1,31.2,0.00,WNW,293,4.4,6.4,48,0.00,,,0.00,WUHU216HW,2013-03-10 13:30:00,
2013-03-10 09:35:00,50.1,31.2,0.00,NNW,338,2.2,5.1,48,0.00,,,0.00,WUHU216HW,2013-03-10 13:35:00,
2013-03-10 09:40:00,50.3,31.3,0.00,NNW,338,0.0,5.1,48,0.00,,,0.00,WUHU216HW,2013-03-10 13:40:00,
2013-03-10 09:45:00,50.5,31.5,0.00,WNW,293,4.0,4.0,48,0.00,,,0.00,WUHU216HW,2013-03-10 13:45:00,
2013-03-10 09:50:00,50.9,31.3,0.00,NW,315,5.1,5.3,47,0.00,,,0.00,WUHU216HW,2013-03-10 13:50:00,
2013-03-10 09:55:00,51.4,31.8,0.00,NNE,23,2.9,8.5,47,0.00,,,0.00,WUHU216HW,2013-03-10 13:55:00,
2013-03-10 10:00:00,51.6,31.9,0.00,WNW,293,0.0,8.5,47,0.00,,,0.00,WUHU216HW,2013-03-10 14:00:00,
2013-03-10 10:05:00,51.9,31.7,0.00,WNW,293,0.0,7.1,46,0.00,,,0.00,WUHU216HW,2013-03-10 14:05:00,
2013-03-10 10:10:00,51.9,31.5,0.00,NW,315,4.2,7.1,46,0.00,,,0.00,WUHU216HW,2013-03-10 14:10:00,
2013-03-10 10:15:00,51.9,31.7,0.00,WNW,293,1.7,6.0,46,0.00,,,0.00,WUHU216HW,2013-03-10 14:15:00,
2013-03-10 10:20:00,51.8,31.5,0.00,WNW,293,6.0,6.4,46,0.00,,,0.00,WUHU216HW,2013-03-10 14:20:00,
2013-03-10 10:25:00,51.6,31.4,0.00,South,180,4.4,8.9,46,0.00,,,0.00,WUHU216HW,2013-03-10 14:25:00,
2013-03-10 10:30:00,51.6,32.1,0.00,NW,315,0.0,8.9,47,0.00,,,0.00,WUHU216HW,2013-03-10 14:30:00,
2013-03-10 10:35:00,51.8,32.1,0.00,NW,315,2.4,13.1,47,0.00,,,0.00,WUHU216HW,2013-03-10 14:35:00,
2013-03-10 10:40:00,51.8,32.1,0.00,NW,315,4.9,13.1,47,0.00,,,0.00,WUHU216HW,2013-03-10 14:40:00,
2013-03-10 10:45:00,51.9,32.2,0.00,WNW,293,1.3,6.9,47,0.00,,,0.00,WUHU216HW,2013-03-10 14:45:00,
2013-03-10 10:50:00,51.9,32.2,0.00,WNW,293,3.8,6.7,47,0.00,,,0.00,WUHU216HW,2013-03-10 14:50:00,
2013-03-10 10:55:00,52.3,32.6,0.00,NW,315,2.4,6.7,47,0.00,,,0.00,WUHU216HW,2013-03-10 14:55:00,
2013-03-10 11:00:00,52.5,32.7,0.00,NW,315,5.3,6.0,47,0.00,,,0.00,WUHU216HW,2013-03-10 15:00:00,
2013-03-10 11:05:00,52.8,32.5,0.00,NW,315,0.0,7.3,46,0.00,,,0.00,WUHU216HW,2013-03-10 15:05:00,
2013-03-10 11:10:00,53.4,33.0,0.00,WNW,293,6.9,8.2,46,0.00,,,0.00,WUHU216HW,2013-03-10 15:10:00,
2013-03-10 11:15:00,53.7,32.7,0.00,WNW,293,2.9,8.2,45,0.00,,,0.00,WUHU216HW,2013-03-10 15:15:00,
2013-03-10 11:20:00,54.1,33.1,0.00,NW,315,0.0,7.1,45,0.00,,,0.00,WUHU216HW,2013-03-10 15:20:00,
2013-03-10 11:25:00,54.3,33.2,0.00,WNW,293,7.6,10.0,45,0.00,,,0.00,WUHU216HW,2013-03-10 15:25:00,
2013-03-10 11:30:00,54.5,33.4,0.00,West,270,3.8,10.0,45,0.00,,,0.00,WUHU216HW,2013-03-10 15:30:00,
2013-03-10 11:35:00,54.6,33.6,0.00,WNW,293,4.0,7.3,45,0.00,,,0.00,WUHU216HW,2013-03-10 15:35:00,
2013-03-10 11:40:00,55.0,33.9,0.00,WNW,293,0.0,7.3,45,0.00,,,0.00,WUHU216HW,2013-03-10 15:40:00,
2013-03-10 11:45:00,55.2,34.0,0.00,West,270,2.2,4.0,45,0.00,,,0.00,WUHU216HW,2013-03-10 15:45:00,
2013-03-10 11:50:00,55.2,33.5,0.00,NW,315,4.6,5.5,44,0.00,,,0.00,WUHU216HW,2013-03-10 15:50:00,
2013-03-10 11:55:00,55.2,33.5,0.00,WNW,293,5.1,6.9,44,0.00,,,0.00,WUHU216HW,2013-03-10 15:55:00,
2013-03-10 12:00:00,55.2,33.5,0.00,WNW,293,2.9,6.9,44,0.00,,,0.00,WUHU216HW,2013-03-10 16:00:00,
2013-03-10 12:05:00,55.4,33.6,0.00,WNW,293,3.1,5.1,44,0.00,,,0.00,WUHU216HW,2013-03-10 16:05:00,
2013-03-10 12:10:00,55.7,34.0,0.00,WNW,293,7.8,7.8,44,0.00,,,0.00,WUHU216HW,2013-03-10 16:10:00,
2013-03-10 12:15:00,56.1,34.3,0.00,NW,315,3.3,7.8,44,0.00,,,0.00,WUHU216HW,2013-03-10 16:15:00,
2013-03-10 12:20:00,56.4,34.7,0.00,SE,135,3.5,7.6,44,0.00,,,0.00,WUHU216HW,2013-03-10 16:20:00,
2013-03-10 12:25:00,56.8,35.0,0.00,WNW,293,0.0,7.6,44,0.00,,,0.00,WUHU216HW,2013-03-10 16:25:00,
2013-03-10 12:30:00,57.0,35.2,0.00,West,270,2.9,5.8,44,0.00,,,0.00,WUHU216HW,2013-03-10 16:30:00,
2013-03-10 12:35:00,57.3,34.9,0.00,NW,315,10.7,11.8,43,0.00,,,0.00,WUHU216HW,2013-03-10 16:35:00,
2013-03-10 12:40:00,57.7,35.2,0.00,West,270,4.2,11.8,43,0.00,,,0.00,WUHU216HW,2013-03-10 16:40:00,
2013-03-10 12:45:00,57.9,34.8,0.00,NNW,338,0.0,8.2,42,0.00,,,0.00,WUHU216HW,2013-03-10 16:45:00,
2013-03-10 12:50:00,58.2,35.2,0.00,WNW,293,3.1,6.2,41,0.00,,,0.00,WUHU216HW,2013-03-10 16:50:00,
2013-03-10 12:55:00,58.8,35.6,0.00,WNW,293,0.0,9.8,42,0.00,,,0.00,WUHU216HW,2013-03-10 16:55:00,
2013-03-10 13:00:00,58.8,35.1,0.00,NW,315,0.0,9.8,41,0.00,,,0.00,WUHU216HW,2013-03-10 17:00:00,
2013-03-10 13:05:00,59.0,35.8,0.00,WNW,293,6.2,6.9,42,0.00,,,0.00,WUHU216HW,2013-03-10 17:05:00,
2013-03-10 13:10:00,59.1,34.8,0.00,North,0,5.1,12.9,40,0.00,,,0.00,WUHU216HW,2013-03-10 17:10:00,
2013-03-10 13:15:00,59.5,35.7,0.00,NW,315,4.2,12.9,41,0.00,,,0.00,WUHU216HW,2013-03-10 17:15:00,
2013-03-10 13:20:00,60.0,36.2,0.00,WNW,293,5.5,9.8,41,0.00,,,0.00,WUHU216HW,2013-03-10 17:20:00,
2013-03-10 13:25:00,60.4,35.9,0.00,NW,315,7.6,8.7,40,0.00,,,0.00,WUHU216HW,2013-03-10 17:25:00,
2013-03-10 13:30:00,60.6,36.1,0.00,SSW,203,0.0,8.7,40,0.00,,,0.00,WUHU216HW,2013-03-10 17:30:00,
2013-03-10 13:35:00,60.9,35.7,0.00,WNW,293,0.0,6.9,39,0.00,,,0.00,WUHU216HW,2013-03-10 17:35:00,
2013-03-10 13:40:00,61.1,36.8,0.00,West,270,2.4,10.0,40,0.00,,,0.00,WUHU216HW,2013-03-10 17:40:00,
2013-03-10 13:45:00,61.5,36.2,0.00,West,270,4.9,10.0,39,0.00,,,0.00,WUHU216HW,2013-03-10 17:45:00,
2013-03-10 13:50:00,61.5,36.2,0.00,WNW,293,1.5,8.7,39,0.00,,,0.00,WUHU216HW,2013-03-10 17:50:00,
2013-03-10 13:55:00,61.8,35.8,0.00,NW,315,0.0,8.7,38,0.00,,,0.00,WUHU216HW,2013-03-10 17:55:00,
2013-03-10 14:00:00,62.2,35.4,0.00,NW,315,1.5,10.0,37,0.00,,,0.00,WUHU216HW,2013-03-10 18:00:00,
2013-03-10 14:05:00,62.4,35.6,0.00,NW,315,6.7,10.0,37,0.00,,,0.00,WUHU216HW,2013-03-10 18:05:00,
2013-03-10 14:10:00,62.6,35.7,0.00,NW,315,6.2,8.5,37,0.00,,,0.00,WUHU216HW,2013-03-10 18:10:00,
2013-03-10 14:15:00,62.7,35.9,0.00,South,180,3.5,8.5,37,0.00,,,0.00,WUHU216HW,2013-03-10 18:15:00,
2013-03-10 14:20:00,63.3,37.1,0.00,SSE,158,0.0,5.8,38,0.00,,,0.00,WUHU216HW,2013-03-10 18:20:00,
2013-03-10 14:25:00,63.6,36.0,0.00,WNW,293,0.0,9.3,35,0.00,,,0.00,WUHU216HW,2013-03-10 18:25:00,
2013-03-10 14:30:00,63.6,36.0,0.00,SSE,158,1.3,9.3,36,0.00,,,0.00,WUHU216HW,2013-03-10 18:30:00,
2013-03-10 14:35:00,64.0,36.3,0.00,West,270,0.0,6.4,36,0.00,,,0.00,WUHU216HW,2013-03-10 18:35:00,
2013-03-10 14:40:00,64.0,35.6,0.00,WNW,293,2.2,10.5,35,0.00,,,0.00,WUHU216HW,2013-03-10 18:40:00,
2013-03-10 14:45:00,63.6,36.0,0.00,WNW,293,6.4,10.5,36,0.00,,,0.00,WUHU216HW,2013-03-10 18:45:00,
2013-03-10 14:50:00,63.5,35.1,0.00,WNW,293,2.0,11.8,35,0.00,,,0.00,WUHU216HW,2013-03-10 18:50:00,
2013-03-10 14:55:00,63.5,35.8,0.00,WNW,293,0.0,11.8,36,0.00,,,0.00,WUHU216HW,2013-03-10 18:55:00,
2013-03-10 15:00:00,63.6,36.9,0.00,WNW,293,8.9,8.9,37,0.00,,,0.00,WUHU216HW,2013-03-10 19:00:00,
2013-03-10 15:05:00,63.6,36.0,0.00,WNW,293,2.9,9.1,36,0.00,,,0.00,WUHU216HW,2013-03-10 19:05:00,
2013-03-10 15:10:00,63.8,36.1,0.00,West,270,1.7,9.1,36,0.00,,,0.00,WUHU216HW,2013-03-10 19:10:00,
2013-03-10 15:15:00,63.6,35.3,0.00,West,270,2.9,8.0,35,0.00,,,0.00,WUHU216HW,2013-03-10 19:15:00,
2013-03-10 15:20:00,63.5,35.8,0.00,WNW,293,1.5,8.0,36,0.00,,,0.00,WUHU216HW,2013-03-10 19:20:00,
2013-03-10 15:25:00,63.5,35.1,0.00,NW,315,1.5,3.3,35,0.00,,,0.00,WUHU216HW,2013-03-10 19:25:00,
2013-03-10 15:30:00,63.6,35.3,0.00,West,270,2.9,4.2,35,0.00,,,0.00,WUHU216HW,2013-03-10 19:30:00,
2013-03-10 15:35:00,63.6,35.3,0.00,NW,315,4.2,6.2,35,0.00,,,0.00,WUHU216HW,2013-03-10 19:35:00,
2013-03-10 15:40:00,64.0,35.6,0.00,West,270,7.1,7.1,35,0.00,,,0.00,WUHU216HW,2013-03-10 19:40:00,
2013-03-10 15:45:00,64.0,35.6,0.00,WNW,293,3.8,7.1,35,0.00,,,0.00,WUHU216HW,2013-03-10 19:45:00,
2013-03-10 15:50:00,64.0,35.6,0.00,West,270,5.1,7.3,35,0.00,,,0.00,WUHU216HW,2013-03-10 19:50:00,
2013-03-10 15:55:00,63.6,34.5,0.00,West,270,11.4,11.4,34,0.00,,,0.00,WUHU216HW,2013-03-10 19:55:00,
2013-03-10 16:00:00,63.3,34.2,0.00,WNW,293,2.2,11.4,34,0.00,,,0.00,WUHU216HW,2013-03-10 20:00:00,
2013-03-10 16:05:00,63.1,34.8,0.00,WNW,293,3.5,8.0,35,0.00,,,0.00,WUHU216HW,2013-03-10 20:05:00,
2013-03-10 16:10:00,63.1,34.8,0.00,WNW,293,10.0,12.3,35,0.00,,,0.00,WUHU216HW,2013-03-10 20:10:00,
2013-03-10 16:15:00,63.1,34.8,0.00,WSW,248,7.1,12.3,35,0.00,,,0.00,WUHU216HW,2013-03-10 20:15:00,
2013-03-10 16:20:00,63.1,34.8,0.00,West,270,0.0,7.1,35,0.00,,,0.00,WUHU216HW,2013-03-10 20:20:00,
2013-03-10 16:25:00,62.9,34.6,0.00,WNW,293,2.4,5.5,35,0.00,,,0.00,WUHU216HW,2013-03-10 20:25:00,
2013-03-10 16:30:00,62.7,35.2,0.00,WSW,248,4.0,5.5,36,0.00,,,0.00,WUHU216HW,2013-03-10 20:30:00,
2013-03-10 16:35:00,62.4,34.8,0.00,North,0,0.0,9.8,36,0.00,,,0.00,WUHU216HW,2013-03-10 20:35:00,
2013-03-10 16:40:00,62.4,34.8,0.00,WSW,248,5.8,9.8,36,0.00,,,0.00,WUHU216HW,2013-03-10 20:40:00,
2013-03-10 16:45:00,62.4,34.0,0.00,WNW,293,7.3,12.5,35,0.00,,,0.00,WUHU216HW,2013-03-10 20:45:00,
2013-03-10 16:50:00,62.2,34.7,0.00,West,270,2.9,12.5,36,0.00,,,0.00,WUHU216HW,2013-03-10 20:50:00,
2013-03-10 16:55:00,62.2,34.7,0.00,West,270,6.0,13.6,36,0.00,,,0.00,WUHU216HW,2013-03-10 20:55:00,
2013-03-10 17:00:00,62.2,34.7,0.00,West,270,3.3,13.6,36,0.00,,,0.00,WUHU216HW,2013-03-10 21:00:00,
2013-03-10 17:05:00,62.2,34.5,0.00,SE,135,3.3,10.2,36,0.00,,,0.00,WUHU216HW,2013-03-10 21:05:00,
2013-03-10 17:10:00,61.8,34.4,0.00,WNW,293,7.3,7.3,36,0.00,,,0.00,WUHU216HW,2013-03-10 21:10:00,
2013-03-10 17:15:00,61.8,34.4,0.00,West,270,7.1,8.2,36,0.00,,,0.00,WUHU216HW,2013-03-10 21:15:00,
2013-03-10 17:20:00,61.7,34.2,0.00,WSW,248,0.0,8.2,36,0.00,,,0.00,WUHU216HW,2013-03-10 21:20:00,
2013-03-10 17:25:00,61.7,34.2,0.00,South,180,0.0,6.7,36,0.00,,,0.00,WUHU216HW,2013-03-10 21:25:00,
2013-03-10 17:30:00,61.5,34.0,0.00,West,270,7.3,7.3,36,0.00,,,0.00,WUHU216HW,2013-03-10 21:30:00,
2013-03-10 17:35:00,61.3,33.9,0.00,West,270,2.0,10.0,36,0.00,,,0.00,WUHU216HW,2013-03-10 21:35:00,
2013-03-10 17:40:00,61.3,33.9,0.00,WNW,293,6.9,10.0,36,0.00,,,0.00,WUHU216HW,2013-03-10 21:40:00,
2013-03-10 17:45:00,61.1,34.4,0.00,West,270,2.9,7.8,37,0.00,,,0.00,WUHU216HW,2013-03-10 21:45:00,
2013-03-10 17:50:00,60.9,34.3,0.00,SE,135,0.0,7.3,37,0.00,,,0.00,WUHU216HW,2013-03-10 21:50:00,
2013-03-10 17:55:00,60.9,34.3,0.00,West,270,4.0,6.7,37,0.00,,,0.00,WUHU216HW,2013-03-10 21:55:00,
2013-03-10 18:00:00,60.9,34.3,0.00,West,270,4.9,9.3,37,0.00,,,0.00,WUHU216HW,2013-03-10 22:00:00,
2013-03-10 18:05:00,60.9,34.3,0.00,West,270,6.2,9.3,37,0.00,,,0.00,WUHU216HW,2013-03-10 22:05:00,
2013-03-10 18:10:00,60.9,34.3,0.00,SSW,203,1.1,6.2,37,0.00,,,0.00,WUHU216HW,2013-03-10 22:10:00,
2013-03-10 18:15:00,60.8,34.3,0.00,WNW,293,0.0,7.6,38,0.00,,,0.00,WUHU216HW,2013-03-10 22:15:00,
2013-03-10 18:20:00,60.6,34.7,0.00,West,270,3.3,8.2,38,0.00,,,0.00,WUHU216HW,2013-03-10 22:20:00,
2013-03-10 18:25:00,60.4,34.5,0.00,West,270,2.6,13.6,38,0.00,,,0.00,WUHU216HW,2013-03-10 22:25:00,
2013-03-10 18:30:00,60.4,34.5,0.00,WNW,293,0.0,13.6,38,0.00,,,0.00,WUHU216HW,2013-03-10 22:30:00,
2013-03-10 18:35:00,60.0,34.2,0.00,West,270,1.3,12.0,38,0.00,,,0.00,WUHU216HW,2013-03-10 22:35:00,
2013-03-10 18:40:00,59.9,34.7,0.00,West,270,3.5,12.0,38,0.00,,,0.00,WUHU216HW,2013-03-10 22:40:00,
2013-03-10 18:45:00,59.7,34.6,0.00,West,270,8.5,8.5,39,0.00,,,0.00,WUHU216HW,2013-03-10 22:45:00,
2013-03-10 18:50:00,59.5,34.4,0.00,WSW,248,3.1,8.5,39,0.00,,,0.00,WUHU216HW,2013-03-10 22:50:00,
2013-03-10 18:55:00,59.3,34.3,0.00,WNW,293,2.0,6.2,40,0.00,,,0.00,WUHU216HW,2013-03-10 22:55:00,
2013-03-10 19:00:00,58.8,33.8,0.00,West,270,0.0,6.9,39,0.00,,,0.00,WUHU216HW,2013-03-10 23:00:00,
2013-03-10 19:05:00,58.8,34.5,0.00,West,270,4.9,6.9,40,0.00,,,0.00,WUHU216HW,2013-03-10 23:05:00,
2013-03-10 19:10:00,58.8,34.5,0.00,West,270,5.8,5.8,40,0.00,,,0.00,WUHU216HW,2013-03-10 23:10:00,
2013-03-10 19:15:00,58.6,34.3,0.00,West,270,2.4,5.8,40,0.00,,,0.00,WUHU216HW,2013-03-10 23:15:00,
2013-03-10 19:20:00,58.2,34.0,0.00,West,270,2.9,5.5,40,0.00,,,0.00,WUHU216HW,2013-03-10 23:20:00,
2013-03-10 19:25:00,58.1,33.8,0.00,West,270,1.3,5.5,40,0.00,,,0.00,WUHU216HW,2013-03-10 23:25:00,
2013-03-10 19:30:00,57.9,33.7,0.00,West,270,4.6,4.9,40,0.00,,,0.00,WUHU216HW,2013-03-10 23:30:00,
2013-03-10 19:35:00,57.9,33.7,0.00,SW,225,0.0,11.1,40,0.00,,,0.00,WUHU216HW,2013-03-10 23:35:00,
2013-03-10 19:40:00,57.7,34.1,0.00,SW,225,0.0,11.1,41,0.00,,,0.00,WUHU216HW,2013-03-10 23:40:00,
2013-03-10 19:45:00,57.5,33.9,0.00,WSW,248,2.4,8.9,41,0.00,,,0.00,WUHU216HW,2013-03-10 23:45:00,
2013-03-10 19:50:00,57.3,33.8,0.00,West,270,3.3,8.9,41,0.00,,,0.00,WUHU216HW,2013-03-10 23:50:00,
2013-03-10 19:55:00,57.3,33.8,0.00,WNW,293,4.4,8.0,41,0.00,,,0.00,WUHU216HW,2013-03-10 23:55:00,
2013-03-10 20:00:00,57.0,33.4,0.00,WNW,293,5.5,5.5,41,0.00,,,0.00,WUHU216HW,2013-03-11 00:00:00,
2013-03-10 20:05:00,57.0,33.4,0.00,West,270,0.0,7.1,41,0.00,,,0.00,WUHU216HW,2013-03-11 00:05:00,
2013-03-10 20:10:00,57.0,34.0,0.00,West,270,0.8,7.1,42,0.00,,,0.00,WUHU216HW,2013-03-11 00:10:00,
2013-03-10 20:15:00,56.8,33.8,0.00,West,270,3.1,6.4,42,0.00,,,0.00,WUHU216HW,2013-03-11 00:15:00,
2013-03-10 20:20:00,56.8,33.8,0.00,WNW,293,1.1,6.4,42,0.00,,,0.00,WUHU216HW,2013-03-11 00:20:00,
2013-03-10 20:25:00,56.8,33.8,0.00,WNW,293,2.0,6.4,42,0.00,,,0.00,WUHU216HW,2013-03-11 00:25:00,
2013-03-10 20:30:00,56.4,33.5,0.00,West,270,3.3,6.4,42,0.00,,,0.00,WUHU216HW,2013-03-11 00:30:00,
2013-03-10 20:35:00,56.4,34.1,0.00,West,270,0.0,4.9,43,0.00,,,0.00,WUHU216HW,2013-03-11 00:35:00,
2013-03-10 20:40:00,56.4,34.1,0.00,WNW,293,4.0,4.9,43,0.00,,,0.00,WUHU216HW,2013-03-11 00:40:00,
2013-03-10 20:45:00,56.4,34.1,0.00,WSW,248,0.0,6.0,43,0.00,,,0.00,WUHU216HW,2013-03-11 00:45:00,
2013-03-10 20:50:00,56.4,34.7,0.00,WSW,248,2.2,8.0,44,0.00,,,0.00,WUHU216HW,2013-03-11 00:50:00,
2013-03-10 20:55:00,56.4,34.7,0.00,WSW,248,0.4,8.0,44,0.00,,,0.00,WUHU216HW,2013-03-11 00:55:00,
2013-03-10 21:00:00,56.3,34.5,0.00,WNW,293,9.8,9.8,45,0.00,,,0.00,WUHU216HW,2013-03-11 01:00:00,
2013-03-10 21:05:00,56.3,35.0,0.00,West,270,0.0,9.8,45,0.00,,,0.00,WUHU216HW,2013-03-11 01:05:00,
2013-03-10 21:10:00,56.1,34.9,0.00,West,270,0.0,8.9,45,0.00,,,0.00,WUHU216HW,2013-03-11 01:10:00,
2013-03-10 21:15:00,56.1,34.9,0.00,WNW,293,2.9,8.9,45,0.00,,,0.00,WUHU216HW,2013-03-11 01:15:00,
2013-03-10 21:20:00,56.1,34.9,0.00,WSW,248,4.2,7.8,45,0.00,,,0.00,WUHU216HW,2013-03-11 01:20:00,
2013-03-10 21:25:00,56.1,34.9,0.00,West,270,3.3,6.0,45,0.00,,,0.00,WUHU216HW,2013-03-11 01:25:00,
2013-03-10 21:30:00,56.1,34.9,0.00,West,270,3.3,11.4,45,0.00,,,0.00,WUHU216HW,2013-03-11 01:30:00,
2013-03-10 21:35:00,56.1,34.9,0.00,SW,225,0.0,11.4,45,0.00,,,0.00,WUHU216HW,2013-03-11 01:35:00,
2013-03-10 21:40:00,55.9,34.7,0.00,WNW,293,7.3,7.3,45,0.00,,,0.00,WUHU216HW,2013-03-11 01:40:00,
2013-03-10 21:45:00,55.9,35.3,0.00,WNW,293,4.4,8.2,46,0.00,,,0.00,WUHU216HW,2013-03-11 01:45:00,
2013-03-10 21:50:00,55.9,35.3,0.00,SE,135,0.0,8.2,46,0.00,,,0.00,WUHU216HW,2013-03-11 01:50:00,
2013-03-10 21:55:00,55.9,35.3,0.00,West,270,7.1,7.1,46,0.00,,,0.00,WUHU216HW,2013-03-11 01:55:00,
2013-03-10 22:00:00,55.7,35.1,0.00,West,270,5.3,7.1,46,0.00,,,0.00,WUHU216HW,2013-03-11 02:00:00,
2013-03-10 22:05:00,55.7,35.1,0.00,West,270,6.0,6.7,46,0.00,,,0.00,WUHU216HW,2013-03-11 02:05:00,
2013-03-10 22:10:00,55.7,35.1,0.00,SSW,203,0.0,8.2,46,0.00,,,0.00,WUHU216HW,2013-03-11 02:10:00,
2013-03-10 22:15:00,55.5,34.9,0.00,WNW,293,3.3,8.2,46,0.00,,,0.00,WUHU216HW,2013-03-11 02:15:00,
2013-03-10 22:20:00,55.4,34.8,0.00,West,270,2.6,5.3,46,0.00,,,0.00,WUHU216HW,2013-03-11 02:20:00,
2013-03-10 22:25:00,55.2,34.6,0.00,WNW,293,3.8,5.3,46,0.00,,,0.00,WUHU216HW,2013-03-11 02:25:00,
2013-03-10 22:30:00,55.2,34.6,0.00,West,270,3.5,5.1,46,0.00,,,0.00,WUHU216HW,2013-03-11 02:30:00,
2013-03-10 22:35:00,55.2,34.6,0.00,West,270,0.0,3.5,46,0.00,,,0.00,WUHU216HW,2013-03-11 02:35:00,
2013-03-10 22:40:00,55.2,34.6,0.00,West,270,3.5,9.1,46,0.00,,,0.00,WUHU216HW,2013-03-11 02:40:00,
2013-03-10 22:45:00,55.2,34.6,0.00,West,270,7.8,9.1,46,0.00,,,0.00,WUHU216HW,2013-03-11 02:45:00,
2013-03-10 22:50:00,55.2,35.0,0.00,West,270,2.0,7.8,47,0.00,,,0.00,WUHU216HW,2013-03-11 02:50:00,
2013-03-10 22:55:00,55.0,35.0,0.00,WSW,248,2.6,4.4,47,0.00,,,0.00,WUHU216HW,2013-03-11 02:55:00,
2013-03-10 23:00:00,55.0,35.0,0.00,WNW,293,6.7,6.7,47,0.00,,,0.00,WUHU216HW,2013-03-11 03:00:00,
2013-03-10 23:05:00,55.0,35.0,0.00,SW,225,2.9,6.7,47,0.00,,,0.00,WUHU216HW,2013-03-11 03:05:00,
2013-03-10 23:10:00,55.0,35.0,0.00,West,270,2.4,6.4,47,0.00,,,0.00,WUHU216HW,2013-03-11 03:10:00,
2013-03-10 23:15:00,55.0,35.0,0.00,West,270,4.4,6.4,47,0.00,,,0.00,WUHU216HW,2013-03-11 03:15:00,
2013-03-10 23:20:00,55.0,35.0,0.00,West,270,2.4,5.8,47,0.00,,,0.00,WUHU216HW,2013-03-11 03:20:00,
2013-03-10 23:25:00,55.0,35.0,0.00,WSW,248,0.6,6.0,47,0.00,,,0.00,WUHU216HW,2013-03-11 03:25:00,
2013-03-10 23:30:00,54.8,34.8,0.00,WNW,293,0.0,6.0,47,0.00,,,0.00,WUHU216HW,2013-03-11 03:30:00,
2013-03-10 23:35:00,54.6,34.7,0.00,West,270,2.0,7.3,47,0.00,,,0.00,WUHU216HW,2013-03-11 03:35:00,
2013-03-10 23:40:00,54.6,34.7,0.00,SW,225,0.0,10.7,47,0.00,,,0.00,WUHU216HW,2013-03-11 03:40:00,
2013-03-10 23:45:00,54.6,35.2,0.00,WSW,248,3.5,10.7,48,0.00,,,0.00,WUHU216HW,2013-03-11 03:45:00,
2013-03-10 23:50:00,54.6,35.2,0.00,WNW,293,8.0,8.0,48,0.00,,,0.00,WUHU216HW,2013-03-11 03:50:00,
2013-03-10 23:55:00,54.6,35.2,0.00,West,270,2.6,8.0,48,0.00,,,0.00,WUHU216HW,2013-03-11 03:55:00,